Tracking 30101 objects as of 13-Dec-2024
HD Live streaming from Space Station
objects crossing your sky now

STARLINK-5960

Track STARLINK-5960 now!
10-day predictions
STARLINK-5960 is classified as:


NORAD ID: 56920
Int'l Code: 2023-083AW
Perigee: 565.3 km
Apogee: 567.1 km
Inclination: 43.0 °
Period: 95.8 minutes
Semi major axis: 6937 km
RCS: Unknown
Launch date: June 12, 2023
Source: United States (US)
Launch site: AIR FORCE EASTERN TEST RANGE (AFETR)
Your satellite tracking list
Your tracking list is empty




NASA's NSSDC Master Catalog

Two Line Element Set (TLE):
1 56920U 23083AW  24347.11969332 -.00000328  00000-0 -92147-5 0  9995
2 56920  43.0043   7.7791 0001276 276.4755  83.5942 15.02537165 83749
Source of the keplerian elements: AFSPC